St. Francis, KS

12:47 PM CDT on May 21, 2018 (GMT -0500)
Cheyenne County Municipal

Weather History for KSYF - November, 2013

Change the Weather History Date:

Friday, November 1, 2013

  Actual Average Record
Temperature  
Mean Temperature 46 °F -  
Max Temperature 57 °F 59 °F 77 °F (2015)
Min Temperature 34 °F 31 °F 30 °F (2014)
Degree Days  
Heating Degree Days 20    
Moisture  
Dew Point 24 °F    
Average Humidity 44    
Maximum Humidity 67    
Minimum Humidity 22    
Precipitation  
Precipitation 0.00 in - - ()
Sea Level Pressure  
Sea Level Pressure 30.02 in    
Wind  
Wind Speed 15 mph (NW)    
Max Wind Speed 31 mph    
Max Gust Speed 41 mph    
Visibility 10 miles    
Events      
Averages and records for this station are not official NWS values.
T = Trace of Precipitation, MM = Missing Value Source: NWS Daily Summary

Daily Weather History Graph

Daily Weather History Graph

Search for Another Location

Airport or City:

Astronomy

Nov. 01, 2013 Rise Set
Actual Time 8:16 AM CDT 6:44 PM CDT
Civil Twilight 7:48 AM CDT 7:12 PM CDT
Nautical Twilight 7:16 AM CDT 7:44 PM CDT
Astronomical Twilight 6:44 AM CDT 8:16 PM CDT
Moon 6:10 AM CDT (11/1) 5:38 PM CDT (11/1)
Length of Visible Light 11h 24m
Length of Day
10h 28m
Waning Crescent, 4% of the Moon is Illuminated
Nov 1
Waning Crescent
Nov 3
New
Nov 9
First Quarter
Nov 17
Full
Nov 25
Last Quarter

Hourly Weather History & Observations

Time (CDT) Temp. Windchill Dew Point Humidity Pressure Visibility Wind Dir Wind Speed Gust Speed Precip Events Conditions
12:15 AM 48.7 °F - 24.1 °F 38% 29.82 in 10.0 mi West 13.8 mph - N/A   Overcast
12:35 AM 47.8 °F - 23.5 °F 39% 29.82 in 10.0 mi West 15.0 mph - N/A   Mostly Cloudy
12:55 AM 46.2 °F 40.8 °F 23.9 °F 42% 29.83 in 10.0 mi West 11.5 mph 16.1 mph N/A   Scattered Clouds
1:15 AM 44.6 °F 40.2 °F 24.3 °F 45% 29.83 in 10.0 mi West 8.1 mph - N/A   Mostly Cloudy
1:35 AM 45.9 °F 42.3 °F 25.0 °F 44% 29.84 in 10.0 mi West 6.9 mph - N/A   Overcast
1:55 AM 49.6 °F - 25.7 °F 39% 29.84 in 10.0 mi WNW 19.6 mph 24.2 mph N/A   Overcast
2:15 AM 50.0 °F - 25.7 °F 39% 29.85 in 10.0 mi WNW 18.4 mph 26.5 mph N/A   Mostly Cloudy
2:35 AM 49.3 °F - 27.3 °F 43% 29.86 in 10.0 mi West 16.1 mph 25.3 mph N/A   Overcast
2:55 AM 48.7 °F - 28.9 °F 46% 29.86 in 10.0 mi NW 15.0 mph 20.7 mph N/A   Mostly Cloudy
3:15 AM 49.3 °F - 32.0 °F 51% 29.88 in 10.0 mi NW 19.6 mph 33.4 mph N/A   Overcast
3:35 AM 47.7 °F - 33.6 °F 58% 29.88 in 10.0 mi NW 16.1 mph 26.5 mph N/A   Overcast
3:55 AM 46.4 °F 40.4 °F 34.3 °F 63% 29.88 in 10.0 mi WNW 13.8 mph - N/A   Overcast
4:15 AM 45.7 °F 41.5 °F 34.2 °F 64% 29.89 in 10.0 mi WNW 8.1 mph - N/A   Overcast
4:35 AM 45.1 °F 40.8 °F 33.8 °F 65% 29.89 in 10.0 mi West 8.1 mph 16.1 mph N/A   Overcast
4:55 AM 44.1 °F 39.0 °F 32.9 °F 65% 29.90 in 10.0 mi WNW 9.2 mph - N/A   Scattered Clouds
5:15 AM 44.1 °F 37.7 °F 32.0 °F 63% 29.91 in 10.0 mi WNW 12.7 mph 18.4 mph N/A   Clear
5:35 AM 43.0 °F 36.4 °F 32.0 °F 65% 29.91 in 10.0 mi NW 12.7 mph - N/A   Clear
5:55 AM 41.9 °F 35.9 °F 31.6 °F 67% 29.92 in 10.0 mi WNW 10.4 mph 18.4 mph N/A   Clear
6:15 AM 42.8 °F 35.4 °F 31.6 °F 65% 29.92 in 10.0 mi WNW 15.0 mph - N/A   Clear
6:35 AM 43.2 °F 35.6 °F 31.1 °F 62% 29.93 in 10.0 mi WNW 16.1 mph 21.9 mph N/A   Clear
6:55 AM 43.2 °F 35.9 °F 30.7 °F 62% 29.94 in 10.0 mi WNW 15.0 mph 20.7 mph N/A   Clear
7:15 AM 42.8 °F 35.1 °F 30.4 °F 62% 29.95 in 10.0 mi NW 16.1 mph 19.6 mph N/A   Clear
7:35 AM 43.0 °F 35.7 °F 30.2 °F 61% 29.96 in 10.0 mi NW 15.0 mph 21.9 mph N/A   Clear
7:55 AM 43.0 °F 35.4 °F 30.6 °F 62% 29.96 in 10.0 mi NW 16.1 mph 21.9 mph N/A   Clear
8:15 AM 43.7 °F 35.4 °F 29.7 °F 58% 29.97 in 10.0 mi NW 19.6 mph 26.5 mph N/A   Clear
8:35 AM 44.6 °F 37.2 °F 29.3 °F 55% 29.98 in 10.0 mi NW 17.3 mph 24.2 mph N/A   Clear
8:55 AM 44.6 °F 37.2 °F 29.7 °F 56% 30.00 in 10.0 mi NW 17.3 mph 27.6 mph N/A   Clear
9:15 AM 45.5 °F 38.3 °F 29.3 °F 53% 30.01 in 10.0 mi NNW 17.3 mph 24.2 mph N/A   Clear
9:35 AM 45.9 °F 38.3 °F 28.9 °F 52% 30.03 in 10.0 mi NNW 19.6 mph 28.8 mph N/A   Clear
9:55 AM 45.0 °F 37.1 °F 28.9 °F 53% 30.04 in 10.0 mi NNW 19.6 mph 27.6 mph N/A   Clear
10:15 AM 46.9 °F - 29.3 °F 50% 30.05 in 10.0 mi NNW 19.6 mph 27.6 mph N/A   Clear
10:35 AM 48.2 °F - 28.8 °F 47% 30.05 in 10.0 mi NW 19.6 mph 26.5 mph N/A   Clear
10:55 AM 48.9 °F - 28.9 °F 46% 30.07 in 10.0 mi NNW 19.6 mph 26.5 mph N/A   Clear
11:15 AM 49.5 °F - 28.6 °F 45% 30.07 in 10.0 mi NW 18.4 mph 24.2 mph N/A   Clear
11:35 AM 50.9 °F - 27.5 °F 40% 30.07 in 10.0 mi NW 18.4 mph 27.6 mph N/A   Clear
11:55 AM 51.8 °F - 27.0 °F 38% 30.07 in 10.0 mi NNW 19.6 mph 25.3 mph N/A   Clear
12:15 PM 53.2 °F - 24.6 °F 33% 30.07 in 10.0 mi NW 20.7 mph 27.6 mph N/A   Clear
12:35 PM 52.9 °F - 24.3 °F 33% 30.07 in 10.0 mi NNW 24.2 mph 28.8 mph N/A   Scattered Clouds
12:55 PM 54.7 °F - 23.2 °F 29% 30.07 in 10.0 mi NNW 21.9 mph 32.2 mph N/A   Scattered Clouds
1:15 PM 53.6 °F - 22.6 °F 30% 30.07 in 10.0 mi NW 25.3 mph 32.2 mph N/A   Scattered Clouds
1:35 PM 56.5 °F - 19.2 °F 23% 30.06 in 10.0 mi NW 27.6 mph 36.8 mph N/A   Scattered Clouds
1:55 PM 57.2 °F - 18.1 °F 22% 30.05 in 10.0 mi NW 27.6 mph 32.2 mph N/A   Mostly Cloudy
2:15 PM 55.8 °F - 18.0 °F 23% 30.05 in 10.0 mi NNW 24.2 mph 36.8 mph N/A   Scattered Clouds
2:35 PM 53.4 °F - 18.1 °F 25% 30.06 in 10.0 mi NNW 26.5 mph 41.4 mph N/A   Scattered Clouds
2:55 PM 53.6 °F - 17.1 °F 24% 30.06 in 10.0 mi NNW 26.5 mph 40.3 mph N/A   Scattered Clouds
3:15 PM 56.3 °F - 17.4 °F 22% 30.06 in 10.0 mi NNW 31.1 mph 41.4 mph N/A   Mostly Cloudy
4:55 PM 53.8 °F - 16.9 °F 23% 30.08 in 10.0 mi NW 20.7 mph 33.4 mph N/A   Scattered Clouds
5:15 PM 53.1 °F - 16.5 °F 24% 30.09 in 10.0 mi NW 23.0 mph 35.7 mph N/A   Clear
5:35 PM 53.6 °F - 15.6 °F 22% 30.10 in 10.0 mi NW 28.8 mph 38.0 mph N/A   Clear
5:55 PM 52.5 °F - 15.6 °F 23% 30.10 in 10.0 mi NW 19.6 mph 27.6 mph N/A   Clear
6:15 PM 51.1 °F - 16.3 °F 25% 30.10 in 10.0 mi NW 17.3 mph 24.2 mph N/A   Scattered Clouds
6:35 PM 50.2 °F - 16.7 °F 27% 30.12 in 10.0 mi NW 13.8 mph - N/A   Clear
6:55 PM 48.7 °F - 17.2 °F 29% 30.12 in 10.0 mi NNW 11.5 mph - N/A   Scattered Clouds
7:15 PM 47.3 °F - 17.1 °F 30% 30.13 in 10.0 mi NNW 9.2 mph - N/A   Scattered Clouds
7:35 PM 46.4 °F 42.4 °F 16.9 °F 31% 30.14 in 10.0 mi NNW 8.1 mph - N/A   Scattered Clouds
7:55 PM 45.3 °F 40.6 °F 17.6 °F 33% 30.14 in 10.0 mi NNW 9.2 mph - N/A   Scattered Clouds
8:15 PM 44.6 °F 39.7 °F 17.6 °F 34% 30.15 in 10.0 mi NW 9.2 mph - N/A   Clear
8:35 PM 42.3 °F 37.3 °F 18.3 °F 38% 30.17 in 10.0 mi NW 8.1 mph - N/A   Clear
8:55 PM 42.1 °F 36.1 °F 18.1 °F 38% 30.17 in 10.0 mi NNW 10.4 mph - N/A   Clear
9:15 PM 41.7 °F 35.6 °F 18.0 °F 38% 30.17 in 10.0 mi NW 10.4 mph - N/A   Clear
9:35 PM 41.2 °F 36.0 °F 18.1 °F 40% 30.17 in 10.0 mi NW 8.1 mph - N/A   Clear
9:55 PM 38.5 °F 33.4 °F 18.9 °F 45% 30.18 in 10.0 mi NW 6.9 mph - N/A   Clear
10:15 PM 36.9 °F - 18.7 °F 48% 30.18 in 10.0 mi Calm Calm - N/A   Clear
10:35 PM 36.5 °F - 18.9 °F 49% 30.18 in 10.0 mi Calm Calm - N/A   Clear
10:55 PM 35.8 °F 33.0 °F 18.9 °F 50% 30.19 in 10.0 mi NNW 3.5 mph - N/A   Clear
11:15 PM 36.3 °F - 19.0 °F 50% 30.19 in 10.0 mi Calm Calm - N/A   Clear
11:35 PM 34.7 °F - 18.9 °F 52% 30.19 in 10.0 mi Calm Calm - N/A   Clear
11:55 PM 34.7 °F - 19.4 °F 54% 30.20 in 10.0 mi Calm Calm - N/A   Clear